Perry, IA

6:02 PM CDT on October 17, 2017 (GMT -0500)
Perry Municipal

Weather History for KPRO - September, 2012

Change the Weather History Date:

Thursday, September 20, 2012

  Actual Average Record
Temperature  
Mean Temperature 60 °F -  
Max Temperature 74 °F 75 °F 92 °F (1972)
Min Temperature 45 °F 49 °F 29 °F (1991)
Degree Days  
Heating Degree Days 6    
Growing Degree Days 10 (Base 50)    
Moisture  
Dew Point 31 °F    
Average Humidity 41    
Maximum Humidity 71    
Minimum Humidity 13    
Precipitation  
Precipitation 0.00 in - - ()
Sea Level Pressure  
Sea Level Pressure 29.98 in    
Wind  
Wind Speed 8 mph (WNW)    
Max Wind Speed 16 mph    
Max Gust Speed 24 mph    
Visibility 10 miles    
Events      
Averages and records for this station are not official NWS values.
T = Trace of Precipitation, MM = Missing Value Source: NWS Daily Summary

Daily Weather History Graph

Daily Weather History Graph

Search for Another Location

Airport or City:

Trip Planner

Search our weather history database for the weather conditions in past years. The results will help you decide how hot, cold, wet, or windy it might be!

Date:

Astronomy

Sep. 20, 2012 Rise Set
Actual Time 7:02 AM CDT 7:16 PM CDT
Civil Twilight 6:34 AM CDT 7:44 PM CDT
Nautical Twilight 6:02 AM CDT 8:16 PM CDT
Astronomical Twilight 5:28 AM CDT 8:50 PM CDT
Moon 12:26 PM CDT (9/20) 10:13 PM CDT (9/20)
Length of Visible Light 13h 09m
Length of Day
12h 13m
Waxing Crescent, 27% of the Moon is Illuminated
Sep 20
Waxing Crescent
Sep 22
First Quarter
Sep 29
Full
Oct 8
Last Quarter
Oct 15
New

Hourly Weather History & Observations

Time (CDT) Temp. Windchill Dew Point Humidity Pressure Visibility Wind Dir Wind Speed Gust Speed Precip Events Conditions
12:15 AM 53.8 °F - 38.7 °F 57% 29.96 in 10.0 mi West 5.8 mph - N/A   Clear
12:35 AM 52.7 °F - 39.2 °F 60% 29.96 in 10.0 mi WSW 6.9 mph - N/A   Clear
12:55 AM 53.8 °F - 37.9 °F 55% 29.96 in 10.0 mi West 6.9 mph - N/A   Clear
1:15 AM 53.2 °F - 37.9 °F 56% 29.96 in 10.0 mi West 5.8 mph - N/A   Clear
1:35 AM 50.7 °F - 38.3 °F 62% 29.97 in 10.0 mi West 5.8 mph - N/A   Clear
1:55 AM 48.7 °F - 38.5 °F 68% 29.97 in 10.0 mi West 8.1 mph - N/A   Clear
2:15 AM 49.6 °F - 38.3 °F 65% 29.97 in 10.0 mi West 8.1 mph - N/A   Clear
2:35 AM 48.4 °F - 37.4 °F 66% 29.96 in 10.0 mi West 8.1 mph - N/A   Clear
2:55 AM 48.2 °F - 37.4 °F 66% 29.96 in 10.0 mi West 8.1 mph - N/A   Clear
3:15 AM 46.4 °F 42.9 °F 37.4 °F 71% 29.96 in 10.0 mi West 6.9 mph - N/A   Clear
3:35 AM 46.9 °F - 37.2 °F 69% 29.96 in 10.0 mi West 6.9 mph - N/A   Clear
3:55 AM 47.3 °F - 36.7 °F 67% 29.96 in 10.0 mi West 8.1 mph - N/A   Clear
4:15 AM 47.3 °F - 36.7 °F 67% 29.96 in 10.0 mi West 8.1 mph - N/A   Clear
4:35 AM 47.3 °F - 36.9 °F 67% 29.96 in 10.0 mi West 6.9 mph - N/A   Clear
4:55 AM 48.6 °F - 36.5 °F 63% 29.96 in 10.0 mi West 6.9 mph - N/A   Clear
5:15 AM 47.5 °F - 37.4 °F 68% 29.97 in 10.0 mi West 8.1 mph - N/A   Clear
5:35 AM 47.7 °F - 37.2 °F 67% 29.97 in 10.0 mi West 6.9 mph - N/A   Clear
5:55 AM 47.5 °F - 36.7 °F 66% 29.98 in 10.0 mi West 6.9 mph - N/A   Clear
6:15 AM 46.6 °F - 36.5 °F 68% 29.98 in 10.0 mi West 8.1 mph - N/A   Clear
6:35 AM 46.4 °F 41.9 °F 36.1 °F 67% 29.98 in 10.0 mi West 9.2 mph - N/A   Clear
6:55 AM 45.7 °F 41.5 °F 35.8 °F 68% 29.99 in 10.0 mi West 8.1 mph - N/A   Clear
7:15 AM 46.8 °F - 36.1 °F 67% 29.99 in 10.0 mi West 6.9 mph - N/A   Clear
7:35 AM 47.8 °F - 36.5 °F 65% 30.00 in 10.0 mi West 8.1 mph - N/A   Clear
7:55 AM 48.6 °F - 36.9 °F 64% 30.00 in 10.0 mi West 6.9 mph - N/A   Clear
8:15 AM 51.8 °F - 36.5 °F 56% 30.00 in 10.0 mi WNW 6.9 mph - N/A   Clear
8:35 AM 54.5 °F - 35.1 °F 48% 30.00 in 10.0 mi WNW 6.9 mph - N/A   Clear
8:55 AM 55.6 °F - 34.0 °F 44% 30.01 in 10.0 mi WNW 6.9 mph - N/A   Clear
9:15 AM 56.8 °F - 33.6 °F 42% 30.01 in 10.0 mi WNW 5.8 mph - N/A   Clear
9:35 AM 59.7 °F - 32.7 °F 36% 30.01 in 10.0 mi NW 9.2 mph - N/A   Clear
9:55 AM 60.8 °F - 31.1 °F 33% 30.02 in 10.0 mi NW 9.2 mph - N/A   Clear
10:15 AM 62.1 °F - 30.6 °F 31% 30.02 in 10.0 mi NW 8.1 mph - N/A   Clear
10:35 AM 65.5 °F - 28.2 °F 25% 30.01 in 10.0 mi NW 10.4 mph - N/A   Clear
10:55 AM 66.4 °F - 27.3 °F 23% 30.02 in 10.0 mi WNW 9.2 mph - N/A   Clear
11:15 AM 68.2 °F - 24.3 °F 19% 30.02 in 10.0 mi NW 15.0 mph 23.0 mph N/A   Clear
11:35 AM 68.4 °F - 24.8 °F 19% 30.02 in 10.0 mi NW 11.5 mph 19.6 mph N/A   Clear
11:55 AM 69.6 °F - 22.8 °F 17% 30.02 in 10.0 mi WNW 13.8 mph 21.9 mph N/A   Clear
12:15 PM 69.4 °F - 21.7 °F 16% 30.02 in 10.0 mi NW 15.0 mph 21.9 mph N/A   Clear
12:35 PM 69.1 °F - 20.8 °F 16% 30.02 in 10.0 mi NW 11.5 mph 18.4 mph N/A   Clear
12:55 PM 70.5 °F - 21.7 °F 16% 30.01 in 10.0 mi WNW 16.1 mph 20.7 mph N/A   Clear
1:15 PM 71.8 °F - 19.0 °F 14% 30.01 in 10.0 mi WNW 16.1 mph 24.2 mph N/A   Clear
1:35 PM 71.4 °F - 19.0 °F 14% 30.00 in 10.0 mi NW 13.8 mph 21.9 mph N/A   Clear
1:55 PM 71.8 °F - 19.9 °F 14% 29.99 in 10.0 mi WNW 16.1 mph 19.6 mph N/A   Clear
2:15 PM 73.0 °F - 18.9 °F 13% 29.98 in 10.0 mi NW 11.5 mph 23.0 mph N/A   Clear
2:35 PM 73.2 °F - 19.9 °F 13% 29.98 in 10.0 mi WNW 15.0 mph 24.2 mph N/A   Clear
2:55 PM 72.1 °F - 20.5 °F 14% 29.97 in 10.0 mi NW 11.5 mph 19.6 mph N/A   Clear
3:15 PM 71.8 °F - 21.0 °F 15% 29.97 in 10.0 mi WNW 11.5 mph 18.4 mph N/A   Clear
3:35 PM 74.3 °F - 21.4 °F 14% 29.97 in 10.0 mi WNW 15.0 mph 18.4 mph N/A   Clear
3:55 PM 73.4 °F - 21.2 °F 14% 29.96 in 10.0 mi NW 11.5 mph 18.4 mph N/A   Clear
4:15 PM 72.3 °F - 22.5 °F 15% 29.96 in 10.0 mi WNW 11.5 mph 17.3 mph N/A   Clear
4:35 PM 71.2 °F - 22.3 °F 16% 29.95 in 10.0 mi NW 11.5 mph 19.6 mph N/A   Clear
4:55 PM 72.9 °F - 22.1 °F 15% 29.95 in 10.0 mi WNW 11.5 mph - N/A   Clear
5:15 PM 71.6 °F - 22.1 °F 16% 29.95 in 10.0 mi NW 9.2 mph - N/A   Clear
5:35 PM 71.6 °F - 22.6 °F 16% 29.95 in 10.0 mi NW 11.5 mph - N/A   Clear
5:55 PM 71.4 °F - 23.2 °F 16% 29.94 in 10.0 mi NW 9.2 mph - N/A   Clear
6:15 PM 70.3 °F - 23.9 °F 17% 29.94 in 10.0 mi NW 8.1 mph - N/A   Clear
6:35 PM 68.2 °F - 26.1 °F 21% 29.95 in 10.0 mi NW 4.6 mph - N/A   Clear
6:55 PM 65.1 °F - 28.8 °F 26% 29.95 in 10.0 mi West 3.5 mph - N/A   Clear
7:15 PM 61.0 °F - 32.7 °F 35% 29.96 in 10.0 mi WSW 5.8 mph - N/A   Scattered Clouds
7:35 PM 59.0 °F - 34.0 °F 39% 29.96 in 10.0 mi West 5.8 mph - N/A   Scattered Clouds
7:55 PM 60.4 °F - 34.9 °F 38% 29.96 in 10.0 mi West 5.8 mph - N/A   Mostly Cloudy
8:15 PM 59.4 °F - 36.3 °F 42% 29.97 in 10.0 mi West 4.6 mph - N/A   Overcast
8:35 PM 59.9 °F - 36.3 °F 41% 29.97 in 10.0 mi WNW 4.6 mph - N/A   Mostly Cloudy
8:55 PM 59.0 °F - 37.4 °F 45% 29.97 in 10.0 mi WNW 3.5 mph - N/A   Scattered Clouds
9:15 PM 59.4 °F - 37.0 °F 43% 29.97 in 10.0 mi Calm Calm - N/A   Scattered Clouds
9:35 PM 57.9 °F - 39.2 °F 50% 29.97 in 10.0 mi SW 5.8 mph - N/A   Scattered Clouds
9:55 PM 58.3 °F - 37.9 °F 47% 29.96 in 10.0 mi WSW 5.8 mph - N/A   Clear
10:15 PM 56.5 °F - 38.5 °F 51% 29.96 in 10.0 mi SW 6.9 mph - N/A   Clear
10:35 PM 58.6 °F - 36.5 °F 44% 29.95 in 10.0 mi SW 6.9 mph - N/A   Scattered Clouds
10:55 PM 58.3 °F - 36.7 °F 45% 29.95 in 10.0 mi SW 6.9 mph - N/A   Scattered Clouds
11:35 PM 55.8 °F - 39.4 °F 54% 29.95 in 10.0 mi SW 3.5 mph - N/A   Clear
11:55 PM 55.0 °F - 41.7 °F 61% 29.94 in 10.0 mi Calm Calm - N/A   Scattered Clouds